GW5319 Weather Reports


Display with metric or nautical units.
time (UTC)temp
F
wind
direction
speed
MPH
gust
MPH
rain 1hr
in
rain 24hr
in
rain mn
in
humidity
%
barometer
mb
20260505010100 44 354 1.0 3.0 0.00 0.00 0.00 79 1015.3
20260505004602 45 352 0.0 4.0 0.00 0.00 0.00 77 1015.3
20260505003108 45 324 2.0 4.0 0.00 0.00 0.00 80 1015.4
20260505001557 45 359 1.0 4.0 0.00 0.00 0.00 79 1015.4
20260505000116 45 360 2.0 4.0 0.00 0.00 0.00 80 1015.4
20260504234555 45 0 0.0 3.0 0.00 0.00 0.00 79 1015.5
20260504233108 45 0 0.0 1.0 0.00 0.00 0.00 79 1015.7
20260504231554 45 326 0.0 1.0 0.00 0.00 0.00 79 1015.7
20260504230053 46 322 0.0 1.0 0.00 0.00 0.00 78 1015.7
20260504224601 47 321 0.0 1.0 0.00 0.00 0.00 78 1015.8
20260504223129 47 0 0.0 0.0 0.00 0.00 0.00 77 1016.0
20260504221552 47 321 0.0 1.0 0.00 0.00 0.00 76 1016.0
20260504220053 48 321 0.0 1.0 0.00 0.00 0.00 75 1016.0
20260504214555 49 0 0.0 1.0 0.00 0.00 0.00 74 1016.0
20260504213101 49 321 0.0 1.0 0.00 0.00 0.00 73 1016.0
20260504211553 50 0 0.0 1.0 0.00 0.00 0.00 71 1016.0
20260504210058 51 0 0.0 1.0 0.00 0.00 0.00 72 1016.1
20260504204557 52 0 0.0 1.0 0.00 0.00 0.00 71 1016.0
20260504203108 54 0 0.0 0.0 0.00 0.00 0.00 70 1016.0
20260504201555 55 0 0.0 0.0 0.00 0.00 0.00 69 1015.9
20260504200106 55 0 0.0 1.0 0.00 0.00 0.00 69 1015.9
20260504194553 56 0 0.0 0.0 0.00 0.00 0.00 67 1015.9
20260504193058 57 0 0.0 1.0 0.00 0.00 0.00 65 1015.8
20260504191557 58 0 0.0 0.0 0.00 0.00 0.00 64 1015.8
20260504190054 60 0 0.0 1.0 0.00 0.00 0.00 62 1015.7
20260504184559 61 0 0.0 0.0 0.00 0.00 0.00 59 1015.6
20260504183057 63 0 0.0 0.0 0.00 0.00 0.00 56 1015.4
20260504181603 65 0 0.0 0.0 0.00 0.00 0.00 52 1015.3
20260504180059 67 0 0.0 0.0 0.00 0.00 0.00 48 1015.3
20260504174609 71 0 0.0 0.0 0.00 0.00 0.00 43 1015.2
20260504173055 74 0 0.0 2.0 0.00 0.00 0.00 38 1015.2
20260504171558 75 231 1.0 4.0 0.00 0.00 0.00 35 1015.1
20260504160104 78 140 4.0 10.0 0.00 0.00 0.00 28 1015.4
20260504150103 78 218 6.0 11.0 0.00 0.00 0.00 28 1015.7
20260504090104 71 162 7.0 14.0 0.00 0.00 0.00 36 1019.4
20260504081553 68 188 8.0 15.0 0.00 0.00 0.00 41 1019.6
20260504044601 40 332 1.0 2.0 0.00 0.00 0.00 82 1019.7
20260504043057 38 356 2.0 3.0 0.00 0.00 0.00 85 1019.6
20260504041556 37 344 0.0 2.0 0.00 0.00 0.00 85 1019.6
20260504040107 37 345 0.0 1.0 0.00 0.00 0.00 86 1019.5
20260504034613 37 345 0.0 1.0 0.00 0.00 0.00 86 1019.5
20260504033055 37 345 1.0 3.0 0.00 0.00 0.00 85 1019.4
20260504031600 37 334 0.0 1.0 0.00 0.00 0.00 85 1019.4
20260504030119 37 0 0.0 0.0 0.00 0.00 0.00 84 1019.4
20260504024603 38 334 1.0 1.0 0.00 0.00 0.00 84 1019.4
20260504023055 38 334 0.0 1.0 0.00 0.00 0.00 83 1019.4
20260504021554 38 334 1.0 1.0 0.00 0.00 0.00 84 1019.3
20260504020107 39 334 1.0 2.0 0.00 0.00 0.00 83 1019.3
20260504014601 39 330 0.0 1.0 0.00 0.00 0.00 83 1019.3
20260504013056 40 322 1.0 1.0 0.00 0.00 0.00 81 1019.3
20260504011553 41 0 0.0 0.0 0.00 0.00 0.00 82 1019.3